This demonstration page uses our WeatherBlox Daily Observations layout. Learn more.

39.92423, -83.80882

Hourly Observations for September 23, 2016

Temp ( °F °C ) Dew Point ( °F °C ) Humidity (%) Winds ( mph kmh ) Pressure ( in mb ) Visibility ( mi km ) Precip ( " mm )
12:56 am 00:56 Clear 65 18.3 61 16.1 87 87 Calm 30.06 1018 10 16.0934 0 0
1:56 am 01:56 Clear 65 18.3 61 16.1 87 87 Calm 30.06 1018 10 16.0934 0 0
2:56 am 02:56 Clear 63 17.2 60 15.6 90 90 SE 5 7 30.06 1018 10 16.0934 0 0
3:56 am 03:56 Clear 62 16.7 60 15.6 93 93 Calm 30.05 1018 10 16.0934 0 0
4:56 am 04:56 Clear 61 16.1 59 15 93 93 Calm 30.06 1018 10 16.0934 0 0
5:56 am 05:56 Clear 61 16.1 59 15 93 93 Calm 30.06 1018 10 16.0934 0 0
6:56 am 06:56 Clear 59 15 58 14.4 96 96 Calm 30.08 1019 10 16.0934 0 0
7:56 am 07:56 Sunny 62 16.7 61 16.1 96 96 Calm 30.08 1019 10 16.0934 0 0
8:56 am 08:56 Sunny 67 19.4 63 17.2 87 87 Calm 30.09 1019 10 16.0934 0 0
9:56 am 09:56 Sunny 75 23.9 64 17.8 69 69 W 3 6 30.1 1019 10 16.0934 0 0
10:56 am 10:56 Sunny 80 26.7 64 17.8 58 58 NW 5 7 30.1 1019 10 16.0934 0 0
11:56 am 11:56 Sunny 85 29.4 65 18.3 51 51 NW 5 7 30.09 1019 10 16.0934 0 0
12:56 pm 12:56 Sunny 86 30 63 17.2 46 46 VRB 3 6 30.09 1019 10 16.0934 0 0
1:56 pm 13:56 Sunny 87 30.6 63 17.2 45 45 VRB 3 6 30.06 1018 10 16.0934 0 0
2:56 pm 14:56 Mostly Sunny 88 31.1 63 17.2 43 43 NW 5 7 30.05 1018 10 16.0934 0 0
3:56 pm 15:56 Sunny 87 30.6 61 16.1 42 42 VRB 3 6 30.03 1017 10 16.0934 0 0
4:56 pm 16:56 Sunny 87 30.6 63 17.2 45 45 W 6 9 30.03 1017 10 16.0934 0 0
5:56 pm 17:56 Sunny 86 30 63 17.2 46 46 SSW 5 7 30.02 1017 10 16.0934 0 0
6:56 pm 18:56 Sunny 82 27.8 65 18.3 56 56 SSW 5 7 30.03 1017 10 16.0934 0 0
7:56 pm 19:56 Clear 76 24.4 64 17.8 67 67 SSW 3 6 30.04 1017 10 16.0934 0 0
8:56 pm 20:56 Clear 72 22.2 64 17.8 76 76 SW 5 7 30.05 1018 10 16.0934 0 0
9:56 pm 21:56 Cloudy 74 23.3 65 18.3 74 74 NNE 3 6 30.05 1018 10 16.0934 0 0
10:56 pm 22:56 Clear 68 20 64 17.8 87 87 ENE 3 6 30.06 1018 10 16.0934 0 0
11:56 pm 23:56 Clear 69 20.6 64 17.8 84 84 ENE 5 7 30.07 1018 10 16.0934 0 0

Powered by AerisWeather